Time,TemperatureF,DewpointF,PressureIn,WindDirection,WindDirectionDegrees,WindSpeedMPH,WindSpeedGustMPH,Humidity,HourlyPrecipIn,Conditions,Clouds,dailyrainin,SoftwareType,DateUTC
2013-12-21 00:11:00,35.0,32.0,29.67,WSW,248,0.0,0.0,88,0.00,,,0.00,,2013-12-21 07:11:00,
2013-12-21 00:22:00,35.0,32.0,29.67,WSW,245,0.0,0.0,87,0.00,,,0.00,,2013-12-21 07:22:00,
2013-12-21 00:42:00,34.0,31.0,29.66,West,263,0.0,0.0,88,0.00,,,0.00,,2013-12-21 07:42:00,
2013-12-21 00:53:00,34.0,31.0,29.67,West,276,0.0,0.0,88,0.00,,,0.00,,2013-12-21 07:53:00,
2013-12-21 01:12:00,34.0,31.0,29.66,WNW,282,0.0,0.0,89,0.00,,,0.00,,2013-12-21 08:12:00,
2013-12-21 01:22:00,34.0,31.0,29.66,West,280,0.0,0.0,89,0.00,,,0.00,,2013-12-21 08:22:00,
2013-12-21 01:42:00,34.0,31.0,29.66,WNW,283,0.0,0.0,89,0.00,,,0.00,,2013-12-21 08:42:00,
2013-12-21 01:53:00,34.0,31.0,29.66,WNW,288,0.0,0.0,89,0.00,,,0.00,,2013-12-21 08:53:00,
2013-12-21 02:12:00,34.0,31.0,29.67,West,276,0.0,0.0,88,0.00,,,0.00,,2013-12-21 09:12:00,
2013-12-21 02:22:00,34.0,31.0,29.67,WSW,238,0.0,0.0,87,0.00,,,0.00,,2013-12-21 09:22:00,
2013-12-21 02:43:00,33.0,30.0,29.66,SW,224,0.0,0.0,88,0.00,,,0.00,,2013-12-21 09:43:00,
2013-12-21 02:54:00,33.0,30.0,29.65,SW,229,0.0,0.0,88,0.00,,,0.00,,2013-12-21 09:54:00,
2013-12-21 03:12:00,33.0,29.0,29.65,SW,233,0.0,0.0,86,0.00,,,0.00,,2013-12-21 10:12:00,
2013-12-21 03:23:00,33.0,29.0,29.66,WSW,244,0.0,0.0,86,0.00,,,0.00,,2013-12-21 10:23:00,
2013-12-21 03:43:00,33.0,29.0,29.65,West,266,0.0,0.0,86,0.00,,,0.00,,2013-12-21 10:43:00,
2013-12-21 03:53:00,32.0,29.0,29.65,West,275,0.0,0.0,89,0.00,,,0.00,,2013-12-21 10:53:00,
2013-12-21 04:12:00,31.0,29.0,29.64,WSW,257,0.0,0.0,92,0.00,,,0.00,,2013-12-21 11:12:00,
2013-12-21 04:23:00,31.0,29.0,29.63,West,262,0.0,0.0,94,0.00,,,0.00,,2013-12-21 11:23:00,
2013-12-21 04:42:00,31.0,29.0,29.62,WSW,242,0.0,0.0,94,0.00,,,0.00,,2013-12-21 11:42:00,
2013-12-21 04:53:00,30.0,29.0,29.63,WSW,257,0.0,0.0,95,0.00,,,0.00,,2013-12-21 11:53:00,
2013-12-21 05:12:00,31.0,30.0,29.63,West,272,0.0,0.0,95,0.00,,,0.00,,2013-12-21 12:12:00,
2013-12-21 05:22:00,31.0,30.0,29.63,WSW,256,0.0,0.0,95,0.00,,,0.00,,2013-12-21 12:22:00,
2013-12-21 05:42:00,31.0,30.0,29.64,WSW,247,0.0,0.0,95,0.00,,,0.00,,2013-12-21 12:42:00,
2013-12-21 05:52:00,31.0,30.0,29.64,WNW,292,0.0,0.0,95,0.00,,,0.00,,2013-12-21 12:52:00,
2013-12-21 06:12:00,31.0,30.0,29.65,West,271,0.0,0.0,95,0.00,,,0.00,,2013-12-21 13:12:00,
2013-12-21 06:22:00,32.0,31.0,29.65,West,281,0.0,0.0,95,0.00,,,0.00,,2013-12-21 13:22:00,
2013-12-21 06:42:00,32.0,31.0,29.66,WNW,292,0.0,0.0,95,0.00,,,0.00,,2013-12-21 13:42:00,
2013-12-21 06:52:00,32.0,31.0,29.66,NW,310,0.0,0.0,95,0.00,,,0.00,,2013-12-21 13:52:00,
2013-12-21 07:12:00,33.0,32.0,29.67,WNW,296,0.0,0.0,96,0.00,,,0.00,,2013-12-21 14:12:00,
2013-12-21 07:22:00,33.0,32.0,29.67,WNW,297,0.0,0.0,95,0.00,,,0.00,,2013-12-21 14:22:00,
2013-12-21 07:42:00,33.0,32.0,29.68,NW,316,0.0,0.0,95,0.00,,,0.00,,2013-12-21 14:42:00,
2013-12-21 07:53:00,33.0,32.0,29.69,NW,320,0.0,0.0,95,0.00,,,0.00,,2013-12-21 14:53:00,
2013-12-21 08:12:00,34.0,32.0,29.69,WNW,298,0.0,0.0,94,0.01,,,0.01,,2013-12-21 15:12:00,
2013-12-21 08:22:00,34.0,32.0,29.71,NW,325,0.0,0.0,94,0.01,,,0.01,,2013-12-21 15:22:00,
2013-12-21 08:43:00,34.0,32.0,29.71,NW,320,2.0,23.0,93,0.01,,,0.01,,2013-12-21 15:43:00,
2013-12-21 08:53:00,35.0,33.0,29.71,NW,311,0.0,0.0,93,0.01,,,0.01,,2013-12-21 15:53:00,
2013-12-21 09:13:00,35.0,33.0,29.71,NW,317,0.0,0.0,92,0.00,,,0.01,,2013-12-21 16:13:00,
2013-12-21 09:23:00,36.0,33.0,29.73,NW,316,0.0,0.0,90,0.00,,,0.01,,2013-12-21 16:23:00,
2013-12-21 09:53:00,37.0,34.0,29.74,NW,319,0.0,0.0,87,0.00,,,0.01,,2013-12-21 16:53:00,
2013-12-21 10:12:00,38.0,34.0,29.75,WNW,298,0.0,0.0,85,0.00,,,0.01,,2013-12-21 17:12:00,
2013-12-21 10:22:00,38.0,34.0,29.76,NW,307,0.0,0.0,85,0.00,,,0.01,,2013-12-21 17:22:00,
2013-12-21 10:43:00,39.0,34.0,29.74,WNW,302,0.0,0.0,82,0.00,,,0.01,,2013-12-21 17:43:00,
2013-12-21 10:53:00,39.0,33.0,29.75,WNW,295,0.0,0.0,80,0.00,,,0.01,,2013-12-21 17:53:00,
2013-12-21 11:12:00,40.0,34.0,29.76,WNW,294,0.0,0.0,80,0.00,,,0.01,,2013-12-21 18:12:00,
2013-12-21 11:23:00,39.0,33.0,29.77,WNW,291,0.0,0.0,79,0.00,,,0.01,,2013-12-21 18:23:00,
2013-12-21 11:42:00,38.0,33.0,29.77,WNW,298,0.0,0.0,82,0.00,,,0.01,,2013-12-21 18:42:00,
2013-12-21 11:52:00,38.0,33.0,29.78,NW,304,0.0,0.0,81,0.00,,,0.01,,2013-12-21 18:52:00,
2013-12-21 12:11:00,39.0,34.0,29.78,WNW,290,0.0,0.0,81,0.00,,,0.01,,2013-12-21 19:11:00,
2013-12-21 12:21:00,38.0,33.0,29.78,WNW,300,0.0,0.0,82,0.00,,,0.01,,2013-12-21 19:21:00,
2013-12-21 12:42:00,38.0,33.0,29.77,WNW,296,0.0,0.0,82,0.00,,,0.01,,2013-12-21 19:42:00,
2013-12-21 12:52:00,38.0,33.0,29.78,NW,305,0.0,0.0,83,0.00,,,0.01,,2013-12-21 19:52:00,
2013-12-21 13:12:00,38.0,33.0,29.77,NW,304,0.0,0.0,82,0.00,,,0.01,,2013-12-21 20:12:00,
2013-12-21 13:23:00,38.0,33.0,29.77,NW,308,0.0,0.0,83,0.00,,,0.01,,2013-12-21 20:23:00,
2013-12-21 13:42:00,39.0,34.0,29.77,NW,305,0.0,0.0,81,0.00,,,0.01,,2013-12-21 20:42:00,
2013-12-21 13:52:00,39.0,33.0,29.77,NW,307,0.0,0.0,79,0.00,,,0.01,,2013-12-21 20:52:00,
2013-12-21 14:11:00,40.0,33.0,29.77,NW,304,0.0,0.0,77,0.00,,,0.01,,2013-12-21 21:11:00,
2013-12-21 14:22:00,40.0,33.0,29.77,WNW,282,0.0,0.0,76,0.00,,,0.01,,2013-12-21 21:22:00,
2013-12-21 14:43:00,40.0,33.0,29.78,NW,306,0.0,0.0,75,0.00,,,0.01,,2013-12-21 21:43:00,
2013-12-21 14:53:00,40.0,31.0,29.78,NW,306,0.0,0.0,69,0.00,,,0.01,,2013-12-21 21:53:00,
2013-12-21 15:12:00,40.0,31.0,29.78,NW,304,0.0,0.0,70,0.00,,,0.01,,2013-12-21 22:12:00,
2013-12-21 15:23:00,41.0,31.0,29.76,WNW,294,0.0,0.0,68,0.00,,,0.01,,2013-12-21 22:23:00,
2013-12-21 15:42:00,41.0,31.0,29.78,NW,307,0.0,0.0,67,0.00,,,0.01,,2013-12-21 22:42:00,
2013-12-21 15:53:00,41.0,30.0,29.78,WNW,292,0.0,0.0,65,0.00,,,0.01,,2013-12-21 22:53:00,
2013-12-21 16:12:00,41.0,29.0,29.79,NW,311,0.0,0.0,63,0.00,,,0.01,,2013-12-21 23:12:00,
2013-12-21 16:22:00,41.0,29.0,29.80,WNW,302,0.0,0.0,62,0.00,,,0.01,,2013-12-21 23:22:00,
2013-12-21 16:43:00,41.0,28.0,29.81,WNW,295,0.0,0.0,60,0.00,,,0.01,,2013-12-21 23:43:00,
2013-12-21 16:53:00,40.0,28.0,29.83,NW,310,0.0,0.0,62,0.00,,,0.01,,2013-12-21 23:53:00,
2013-12-21 17:12:00,40.0,29.0,29.83,WNW,293,0.0,0.0,64,0.00,,,0.01,,2013-12-22 00:12:00,
2013-12-21 17:22:00,40.0,30.0,29.84,NW,304,0.0,0.0,67,0.00,,,0.01,,2013-12-22 00:22:00,
2013-12-21 17:42:00,39.0,28.0,29.83,NW,313,0.0,0.0,65,0.00,,,0.01,,2013-12-22 00:42:00,
2013-12-21 17:52:00,38.0,28.0,29.85,WNW,303,0.0,0.0,66,0.00,,,0.01,,2013-12-22 00:52:00,
2013-12-21 18:12:00,38.0,28.0,29.86,NW,309,0.0,0.0,66,0.00,,,0.01,,2013-12-22 01:12:00,
2013-12-21 18:22:00,38.0,28.0,29.86,NW,310,0.0,0.0,68,0.00,,,0.01,,2013-12-22 01:22:00,
2013-12-21 18:42:00,38.0,29.0,29.87,NW,304,0.0,0.0,69,0.00,,,0.01,,2013-12-22 01:42:00,
2013-12-21 18:52:00,38.0,28.0,29.88,NW,317,0.0,0.0,68,0.00,,,0.01,,2013-12-22 01:52:00,
2013-12-21 19:12:00,37.0,27.0,29.88,NW,319,0.0,0.0,68,0.00,,,0.01,,2013-12-22 02:12:00,
2013-12-21 19:22:00,37.0,27.0,29.88,NW,316,0.0,0.0,68,0.00,,,0.01,,2013-12-22 02:22:00,
2013-12-21 19:42:00,37.0,28.0,29.90,NW,315,0.0,0.0,69,0.00,,,0.01,,2013-12-22 02:42:00,
2013-12-21 19:52:00,37.0,29.0,29.91,NW,319,0.0,0.0,72,0.00,,,0.01,,2013-12-22 02:52:00,
2013-12-21 20:11:00,37.0,28.0,29.91,NW,319,0.0,0.0,71,0.00,,,0.01,,2013-12-22 03:11:00,
2013-12-21 20:22:00,37.0,28.0,29.92,NW,313,0.0,0.0,70,0.00,,,0.01,,2013-12-22 03:22:00,
2013-12-21 20:43:00,36.0,27.0,29.94,NW,315,0.0,0.0,70,0.00,,,0.01,,2013-12-22 03:43:00,
2013-12-21 20:54:00,36.0,27.0,29.94,NW,312,0.0,0.0,69,0.00,,,0.01,,2013-12-22 03:54:00,
2013-12-21 21:02:00,-999.0,-99.9,29.95,NW,325,0.0,0.0,-999,0.00,,,-99.99,,2013-12-22 04:02:00,
2013-12-21 21:13:00,36.0,27.0,29.95,NW,325,0.0,0.0,70,0.00,,,0.01,,2013-12-22 04:13:00,
2013-12-21 21:23:00,36.0,27.0,29.95,NW,308,0.0,0.0,70,0.00,,,0.01,,2013-12-22 04:23:00,
2013-12-21 21:43:00,36.0,28.0,29.96,NW,308,0.0,0.0,71,0.00,,,0.01,,2013-12-22 04:43:00,
2013-12-21 21:53:00,36.0,27.0,29.97,WNW,292,0.0,0.0,70,0.00,,,0.01,,2013-12-22 04:53:00,
2013-12-21 22:12:00,36.0,27.0,29.97,NW,305,0.0,0.0,70,0.00,,,0.01,,2013-12-22 05:12:00,
2013-12-21 22:22:00,36.0,27.0,29.98,NW,306,0.0,0.0,70,0.00,,,0.01,,2013-12-22 05:22:00,
2013-12-21 22:43:00,37.0,28.0,29.97,NW,316,0.0,0.0,69,0.00,,,0.01,,2013-12-22 05:43:00,
2013-12-21 22:53:00,37.0,28.0,29.98,NW,313,0.0,0.0,69,0.00,,,0.01,,2013-12-22 05:53:00,
2013-12-21 23:12:00,36.0,27.0,29.99,NW,319,0.0,0.0,69,0.00,,,0.01,,2013-12-22 06:12:00,
2013-12-21 23:22:00,37.0,27.0,29.99,NW,310,0.0,0.0,68,0.00,,,0.01,,2013-12-22 06:22:00,
2013-12-21 23:42:00,37.0,27.0,30.00,NNW,329,0.0,0.0,68,0.00,,,0.01,,2013-12-22 06:42:00,
2013-12-21 23:52:00,37.0,27.0,30.00,NNW,332,0.0,0.0,66,0.00,,,0.01,,2013-12-22 06:52:00,